GW4136 Weather Reports


Display with metric or nautical units.
time (UTC)temp
F
wind
direction
speed
MPH
gust
MPH
rain 1hr
in
rain 24hr
in
rain mn
in
humidity
%
barometer
mb
20260505233606 48 259 1.0 5.0 0.00 0.00 0.00 79 1016.6
20260505232606 48 312 1.0 3.0 0.00 0.00 0.00 79 1016.5
20260505231106 48 275 1.0 8.0 0.00 0.00 0.00 79 1016.7
20260505230107 49 240 0.0 3.0 0.00 0.00 0.00 78 1016.6
20260505225606 49 260 1.0 3.0 0.00 0.00 0.00 78 1016.5
20260505224105 49 241 0.0 2.0 0.00 0.00 0.00 77 1016.5
20260505223105 49 287 3.0 9.0 0.00 0.00 0.00 77 1016.4
20260505222605 49 262 2.0 6.0 0.00 0.00 0.00 77 1016.4
20260505222104 49 226 0.0 5.0 0.00 0.00 0.00 78 1016.4
20260505221604 49 23 1.0 5.0 0.00 0.00 0.00 79 1016.4
20260505221105 50 292 1.0 6.0 0.00 0.00 0.00 79 1016.4
20260505220605 50 280 1.0 6.0 0.00 0.00 0.00 80 1016.4
20260505220105 50 249 1.0 6.0 0.00 0.00 0.00 81 1016.3
20260505215605 50 273 1.0 3.0 0.00 0.00 0.00 81 1016.3
20260505215105 50 318 1.0 7.0 0.00 0.00 0.00 81 1016.2
20260505214105 50 280 0.0 3.0 0.00 0.00 0.00 81 1016.2
20260505213605 51 272 2.0 6.0 0.00 0.00 0.00 81 1016.2
20260505213105 51 278 1.0 5.0 0.00 0.00 0.00 81 1016.2
20260505212605 51 258 0.0 3.0 0.00 0.00 0.00 81 1016.2
20260505212105 51 282 1.0 5.0 0.00 0.00 0.00 81 1016.2
20260505211605 51 300 0.0 2.0 0.00 0.00 0.00 80 1016.2
20260505211104 51 265 0.0 1.0 0.00 0.00 0.00 80 1016.3
20260505210604 51 298 1.0 5.0 0.00 0.00 0.00 79 1016.3
20260505210105 51 282 2.0 5.0 0.00 0.00 0.00 79 1016.2
20260505205604 51 281 2.0 10.0 0.00 0.00 0.00 79 1016.1
20260505205104 51 247 1.0 7.0 0.00 0.00 0.00 79 1016.1
20260505204605 51 274 1.0 3.0 0.00 0.00 0.00 79 1016.1
20260505203604 51 248 0.0 1.0 0.00 0.00 0.00 78 1016.0
20260505203105 51 204 0.0 3.0 0.00 0.00 0.00 78 1016.0
20260505202605 51 252 0.0 1.0 0.00 0.00 0.00 78 1016.0
20260505202104 51 206 0.0 2.0 0.00 0.00 0.00 77 1016.0
20260505201604 51 271 0.0 1.0 0.00 0.00 0.00 77 1016.1
20260505200603 52 170 0.0 1.0 0.00 0.00 0.00 77 1016.0
20260505200105 52 257 0.0 3.0 0.00 0.00 0.00 77 1016.0
20260505195604 52 185 1.0 3.0 0.00 0.00 0.00 77 1016.0
20260505194604 52 263 0.0 3.0 0.00 0.00 0.00 77 1015.9
20260505194104 52 263 1.0 5.0 0.00 0.00 0.00 77 1015.8
20260505193604 52 260 1.0 5.0 0.00 0.00 0.00 77 1015.8
20260505193104 52 206 0.0 3.0 0.00 0.00 0.00 77 1015.8
20260505192604 52 234 0.0 2.0 0.00 0.00 0.00 77 1015.7
20260505192104 52 214 0.0 1.0 0.00 0.00 0.00 77 1015.6
20260505191604 52 251 0.0 3.0 0.00 0.00 0.00 77 1015.6
20260505191104 52 210 1.0 3.0 0.00 0.00 0.00 76 1015.6
20260505190604 53 197 0.0 2.0 0.00 0.00 0.00 76 1015.6
20260505190105 53 218 0.0 3.0 0.00 0.00 0.00 76 1015.5
20260505185604 53 244 0.0 2.0 0.00 0.00 0.00 75 1015.6
20260505185104 53 188 0.0 1.0 0.00 0.00 0.00 75 1015.5
20260505184103 53 217 0.0 3.0 0.00 0.00 0.00 74 1015.5
20260505183104 53 206 0.0 2.0 0.00 0.00 0.00 74 1015.6
20260505182605 53 249 1.0 3.0 0.00 0.00 0.00 73 1015.5
20260505182104 53 168 1.0 6.0 0.00 0.00 0.00 73 1015.5
20260505181604 54 214 1.0 3.0 0.00 0.00 0.00 72 1015.4
20260505181104 54 276 0.0 5.0 0.00 0.00 0.00 72 1015.4
20260505180604 54 270 1.0 3.0 0.00 0.00 0.00 72 1015.4
20260505180105 54 210 0.0 3.0 0.00 0.00 0.00 72 1015.4
20260505175604 55 228 1.0 3.0 0.00 0.00 0.00 72 1015.5
20260505175103 55 197 2.0 6.0 0.00 0.00 0.00 72 1015.3
20260505174605 55 196 1.0 7.0 0.00 0.00 0.00 72 1015.3
20260505174105 55 178 0.0 3.0 0.00 0.00 0.00 70 1015.4
20260505173605 55 205 2.0 8.0 0.00 0.00 0.00 69 1015.4
20260505173105 55 237 1.0 3.0 0.00 0.00 0.00 69 1015.3
20260505172605 55 168 0.0 3.0 0.00 0.00 0.00 69 1015.4
20260505172104 55 232 1.0 6.0 0.00 0.00 0.00 69 1015.3
20260505171605 55 224 1.0 3.0 0.00 0.00 0.00 71 1015.3
20260505165602 55 172 1.0 5.0 0.00 0.00 0.00 70 1015.4
20260505165104 55 168 1.0 3.0 0.00 0.00 0.00 70 1015.3
20260505164104 55 239 1.0 5.0 0.00 0.00 0.00 69 1015.3
20260505163604 55 281 1.0 3.0 0.00 0.00 0.00 68 1015.3
20260505162605 56 201 1.0 6.0 0.00 0.00 0.00 69 1015.2
20260505162104 57 193 0.0 2.0 0.00 0.00 0.00 69 1015.2
20260505161104 57 214 1.0 3.0 0.00 0.00 0.00 65 1015.2
20260505160605 57 234 0.0 5.0 0.00 0.00 0.00 65 1015.2
20260505160105 57 169 1.0 6.0 0.00 0.00 0.00 66 1015.3
20260505153103 56 218 1.0 3.0 0.00 0.00 0.00 67 1015.4
20260505152604 56 283 1.0 5.0 0.00 0.00 0.00 66 1015.4
20260505152105 56 264 2.0 6.0 0.00 0.00 0.00 66 1015.4
20260505151602 56 183 1.0 3.0 0.00 0.00 0.00 68 1015.5
20260505151105 56 210 0.0 3.0 0.00 0.00 0.00 68 1015.5
20260505150604 56 194 0.0 3.0 0.00 0.00 0.00 67 1015.5
20260505150105 56 247 1.0 5.0 0.00 0.00 0.00 66 1015.5
20260505140105 61 264 2.0 3.0 0.00 0.00 0.00 55 1015.6
20260505130105 57 183 1.0 9.0 0.00 0.00 0.00 66 1015.8
20260505124605 59 195 2.0 6.0 0.00 0.00 0.00 61 1015.6
20260505124105 59 177 1.0 5.0 0.00 0.00 0.00 61 1015.6
20260505123605 59 169 1.0 5.0 0.00 0.00 0.00 61 1015.5
20260505123105 58 201 1.0 6.0 0.00 0.00 0.00 60 1015.6
20260505122605 59 213 1.0 5.0 0.00 0.00 0.00 59 1015.6
20260505122105 58 189 1.0 7.0 0.00 0.00 0.00 61 1015.7
20260505121604 58 259 1.0 3.0 0.00 0.00 0.00 62 1015.8
20260505121105 57 219 1.0 6.0 0.00 0.00 0.00 62 1015.9
20260505120605 57 228 1.0 5.0 0.00 0.00 0.00 64 1016.0
20260505120106 56 171 1.0 5.0 0.00 0.00 0.00 65 1015.9
20260505115605 56 250 3.0 6.0 0.00 0.00 0.00 64 1015.9
20260505115105 56 225 1.0 6.0 0.00 0.00 0.00 66 1015.9
20260505114605 55 194 1.0 7.0 0.00 0.00 0.00 65 1016.0
20260505114105 56 235 1.0 8.0 0.00 0.00 0.00 65 1016.0
20260505113108 56 201 1.0 3.0 0.00 0.00 0.00 65 1015.8
20260505112606 57 206 2.0 12.0 0.00 0.00 0.00 63 1015.9
20260505112106 58 181 1.0 7.0 0.00 0.00 0.00 63 1016.0
20260505111105 58 201 2.0 5.0 0.00 0.00 0.00 58 1015.9
20260505110605 58 233 0.0 3.0 0.00 0.00 0.00 60 1015.9
20260505110105 58 235 1.0 5.0 0.00 0.00 0.00 58 1016.0
20260505102105 56 186 0.0 5.0 0.00 0.00 0.00 64 1016.3
20260505101605 56 179 1.0 3.0 0.00 0.00 0.00 64 1016.3
20260505100605 54 198 1.0 3.0 0.00 0.00 0.00 66 1016.3
20260505100105 54 215 0.0 3.0 0.00 0.00 0.00 65 1016.4
20260505095605 55 211 1.0 7.0 0.00 0.00 0.00 65 1016.5
20260505095105 56 265 2.0 6.0 0.00 0.00 0.00 64 1016.5
20260505094105 57 248 1.0 3.0 0.00 0.00 0.00 65 1016.4
20260505093104 57 265 1.0 7.0 0.00 0.00 0.00 65 1016.4
20260505092605 56 237 1.0 3.0 0.00 0.00 0.00 67 1016.3
20260505092105 56 245 2.0 7.0 0.00 0.00 0.00 66 1016.3
20260505091605 56 245 1.0 5.0 0.00 0.00 0.00 68 1016.3
20260505091105 56 189 1.0 9.0 0.00 0.00 0.00 68 1016.4
20260505090605 55 268 1.0 5.0 0.00 0.00 0.00 69 1016.3
20260505085605 54 279 1.0 5.0 0.00 0.00 0.00 70 1016.3
20260505085105 54 256 2.0 9.0 0.00 0.00 0.00 70 1016.4
20260505084605 54 270 1.0 7.0 0.00 0.00 0.00 71 1016.4
20260505083606 54 193 1.0 7.0 0.00 0.00 0.00 74 1016.4
20260505083105 54 239 3.0 8.0 0.00 0.00 0.00 73 1016.5
20260505082605 53 239 2.0 7.0 0.00 0.00 0.00 73 1016.4
20260505082106 54 257 1.0 5.0 0.00 0.00 0.00 74 1016.5
20260505081606 54 234 2.0 6.0 0.00 0.00 0.00 74 1016.6
20260505081105 54 232 0.0 5.0 0.00 0.00 0.00 75 1016.7
20260505080606 53 226 1.0 6.0 0.00 0.00 0.00 74 1016.7
20260505080105 53 268 1.0 5.0 0.00 0.00 0.00 76 1016.7
20260505075605 52 168 1.0 6.0 0.00 0.00 0.00 76 1016.6
20260505075105 52 267 1.0 3.0 0.00 0.00 0.00 77 1016.7
20260505074605 52 147 0.0 2.0 0.00 0.00 0.00 79 1016.6
20260505073605 50 207 1.0 3.0 0.00 0.00 0.00 82 1016.6
20260505073105 50 208 1.0 3.0 0.00 0.00 0.00 83 1016.6
20260505071605 48 244 0.0 3.0 0.00 0.00 0.00 87 1016.7
20260505071105 48 219 0.0 3.0 0.00 0.00 0.00 87 1016.7
20260505070605 48 237 0.0 3.0 0.00 0.00 0.00 88 1016.7
20260505070106 47 209 0.0 3.0 0.00 0.00 0.00 88 1016.8
20260505065605 47 221 0.0 2.0 0.00 0.00 0.00 88 1016.8
20260505065106 47 171 0.0 1.0 0.00 0.00 0.00 89 1016.8
20260505064605 47 189 0.0 1.0 0.00 0.00 0.00 89 1016.8
20260505063605 47 206 0.0 1.0 0.00 0.00 0.00 89 1016.9
20260505063105 47 204 0.0 2.0 0.00 0.00 0.00 89 1016.8
20260505062605 47 183 0.0 3.0 0.00 0.00 0.00 90 1016.8
20260505062106 47 159 0.0 3.0 0.00 0.00 0.00 90 1016.8
20260505061605 46 115 0.0 2.0 0.00 0.00 0.00 90 1016.7
20260505061105 46 150 0.0 1.0 0.00 0.00 0.00 90 1016.7
20260505060605 46 199 0.0 1.0 0.00 0.00 0.00 90 1016.6
20260505060106 46 160 0.0 1.0 0.00 0.00 0.00 90 1016.5
20260505055605 46 193 0.0 1.0 0.00 0.00 0.00 91 1016.6
20260505055105 46 162 0.0 0.0 0.00 0.00 0.00 91 1016.5
20260505054605 46 196 0.0 1.0 0.00 0.00 0.00 91 1016.6
20260505054105 46 107 0.0 0.0 0.00 0.00 0.00 91 1016.5
20260505053605 46 165 0.0 0.0 0.00 0.00 0.00 92 1016.5
20260505053105 46 199 0.0 1.0 0.00 0.00 0.00 92 1016.5
20260505052606 46 195 0.0 2.0 0.00 0.00 0.00 92 1016.4
20260505052106 46 194 0.0 1.0 0.00 0.00 0.00 93 1016.5
20260505051606 45 203 0.0 1.0 0.00 0.00 0.00 93 1016.4
20260505051105 45 212 0.0 0.0 0.00 0.00 0.00 93 1016.4
20260505050605 45 212 0.0 1.0 0.00 0.00 0.00 93 1016.4
20260505050106 45 212 0.0 0.0 0.00 0.00 0.00 93 1016.4
20260505041606 45 253 0.0 0.0 0.00 0.00 0.00 93 1016.5
20260505041105 44 253 0.0 0.0 0.00 0.00 0.00 93 1016.5
20260505040606 44 253 0.0 0.0 0.00 0.00 0.00 93 1016.5
20260505035605 44 253 0.0 0.0 0.00 0.00 0.00 93 1016.4
20260505035106 44 253 0.0 0.0 0.00 0.00 0.00 92 1016.3
20260505034106 44 253 0.0 0.0 0.00 0.00 0.00 92 1016.3
20260505033605 44 253 0.0 0.0 0.00 0.00 0.00 91 1016.3
20260505033106 44 253 0.0 0.0 0.00 0.00 0.00 91 1016.4
20260505032605 44 253 0.0 0.0 0.00 0.00 0.00 91 1016.5
20260505032106 44 253 0.0 0.0 0.00 0.00 0.00 91 1016.5
20260505031606 44 253 0.0 0.0 0.00 0.00 0.00 90 1016.5
20260505031105 44 253 0.0 0.0 0.00 0.00 0.00 90 1016.6
20260505025606 44 271 0.0 0.0 0.00 0.00 0.00 89 1016.6
20260505025106 44 271 0.0 0.0 0.00 0.00 0.00 89 1016.6
20260505024606 45 271 0.0 0.0 0.00 0.00 0.00 89 1016.6
20260505024106 45 271 0.0 0.0 0.00 0.00 0.00 89 1016.6
20260505023606 45 271 0.0 0.0 0.00 0.00 0.00 89 1016.7
20260505023107 45 271 0.0 0.0 0.00 0.00 0.00 88 1016.7
20260505022606 46 200 0.0 0.0 0.00 0.00 0.00 89 1016.7
20260505022106 46 194 0.0 3.0 0.00 0.00 0.00 89 1016.7
20260505021606 46 203 0.0 1.0 0.00 0.00 0.00 89 1016.8
20260505020107 46 173 0.0 0.0 0.00 0.00 0.00 90 1016.9
20260505015606 46 150 0.0 0.0 0.00 0.00 0.00 90 1016.8
20260505015106 46 232 0.0 1.0 0.00 0.00 0.00 91 1016.8
20260505014105 46 145 0.0 2.0 0.00 0.00 0.00 91 1016.8
20260505013606 46 170 0.0 1.0 0.00 0.00 0.00 92 1016.8
20260505013106 46 307 0.0 1.0 0.00 0.00 0.00 92 1016.9
20260505012606 46 154 0.0 0.0 0.00 0.00 0.00 92 1016.9
20260505012106 46 224 0.0 0.0 0.00 0.00 0.00 91 1017.0
20260505011606 46 224 0.0 0.0 0.00 0.00 0.00 91 1017.1
20260505011106 46 224 0.0 0.0 0.00 0.00 0.00 91 1017.0
20260505010606 47 224 0.0 0.0 0.00 0.00 0.00 91 1017.1
20260505010107 47 224 0.0 0.0 0.00 0.00 0.00 91 1017.1
20260505005606 47 224 0.0 0.0 0.00 0.00 0.00 91 1017.0
20260505005106 47 224 0.0 0.0 0.00 0.00 0.00 91 1017.0
20260505004607 47 224 0.0 0.0 0.00 0.00 0.00 90 1017.0
20260505004106 47 224 0.0 0.0 0.00 0.00 0.00 90 1017.1
20260505003606 47 224 0.0 0.0 0.00 0.00 0.00 90 1017.1
20260505003105 48 224 0.0 0.0 0.00 0.00 0.00 90 1017.1
20260505002606 48 224 0.0 0.0 0.00 0.00 0.00 90 1017.2
20260505001106 49 224 0.0 0.0 0.00 0.00 0.00 90 1017.3
20260505000606 49 224 0.0 1.0 0.00 0.00 0.00 91 1017.2
20260505000106 49 240 0.0 3.0 0.00 0.00 0.00 91 1017.3
20260504235106 49 257 0.0 1.0 0.00 0.00 0.00 92 1017.5
20260504234106 49 255 0.0 0.0 0.00 0.00 0.00 92 1017.5